www.pogodaiklimat.ru

Погода и климат >> Архив погоды >> Корея >> Чонджу


ПОГОДА в Чонджу

  • Прогноз погоды в Чонджу
  • Монитор погоды в Чонджу

АРХИВ ПОГОДЫ в Чонджу

Время (UTC), дата Ветер
(напр.,м/с)
 
Видим.   Явления Облачность Т
(С)
Тd
(С)
f
(%)
Тe
(С)
Тes
(С)
Комфортность P
(гПа)
Po
(гПа)
Тmin
(С)
Tmax
(С)
R
(мм)
R24
(мм)
S
(см)
12 16.07 ЮВ 2 3800 м дымка 6/6 1000 м
[Sc]
+23.1 +22.9 99 +32 +32 очень
душно
1011.2 1004.2 +30.8 5
15 16.07 ЮВ 1 2900 м дымка 8/0
[Ci fib]
+22.3 +22.1 99 +30 +30 очень
душно
1012.1 1005.0
18 16.07 В 1 3800 м дымка 8/0
[Ci fib]
+22.3 +22.1 99 +30 +30 очень
душно
1012.0 1004.9
21 16.07 штиль 0 5000 м дымка 8/0
[Ci fib]
+22.2 +22.0 99 +29 +30 очень
душно
1011.9 1004.8
00 17.07 СВ 1 9000 м дымка 8/4 1000 м
[Sc Ci fib]
+26.4 +24.4 89 +37 +43 очень
душно
1011.6 1004.6 +21.8 0.0
03 17.07 20 км н/о +29.6 +23.3 69 1011.0 1004.1
06 17.07 Ю 1 20 км 8/8 1000 м
[Sc]
+30.8 +23.1 64 +41 +45 опасность
перегрева
1009.6 1002.7
09 17.07 ЮЗ 2 20 км 9// 1000 м
[Sc]
+29.0 +22.7 69 +38 +40 очень
душно
1009.4 1002.5
12 17.07 Ю 2 6000 м дымка 10/8 1000 м
[Sc As op]
+26.4 +24.2 88 +37 +37 очень
душно
1010.3 1003.3 +31.5 0.0
15 17.07 С 2 1800 м слаб. дождь 10/6 300 м
[Frnb As op]
+24.0 +23.8 99 +33 +33 очень
душно
1011.3 1004.3
18 17.07 В 2 2000 м слаб. дождь 10/9 300 м
[Frnb As op]
+22.7 +22.5 99 +31 +31 очень
душно
1010.8 1003.8 3
21 17.07 В 2 6000 м слаб. дождь 10/8 600 м
[Frnb As op]
+21.4 +21.2 99 +27 +27 душно 1010.5 1003.4
00 18.07 ЮВ 3 20 км 10/1 1000 м
[Sc As op]
+23.7 +23.5 99 +32 +33 очень
душно
1009.1 1002.1 +21.1 10
03 18.07 штиль 0 20 км 10/3 1000 м
[Sc As op]
+27.2 +24.2 84 +38 +42 очень
душно
1008.7 1001.8
06 18.07 штиль 0 20 км в посл. час дождь 10/4 1000 м
[Sc As op]
+27.7 +24.3 82 +39 +41 очень
душно
1007.8 1000.9
09 18.07 Ю 2 20 км 10/4 1000 м
[Sc As op]
+27.5 +24.5 84 +39 +39 очень
душно
1007.3 1000.4
12 18.07 В 2 20 км 8/0
[Ac trans Ci sp]
+25.8 +24.7 94 +37 +37 очень
душно
1007.9 1000.9 +29.9 0.0
15 18.07 ЮВ 1 20 км 8/0
[Ac trans Ci sp]
+24.1 +23.9 99 +33 +33 очень
душно
1007.9 1000.9
18 18.07 ЮВ 1 20 км 8/3 1000 м
[Sc Ac trans]
+24.2 +24.0 99 +33 +33 очень
душно
1006.6 999.7
21 18.07 В 1 20 км 3/0
[Ci sp]
+23.3 +23.1 99 +33 +33 очень
душно
1006.3 999.3
00 19.07 С 3 20 км 9/0
[Ci sp]
+26.3 +24.8 91 +37 +44 очень
душно
1005.6 998.7 +23.0 0.0
03 19.07 В 1 20 км 10/4 1000 м
[Sc As op]
+28.9 +26.1 85 +44 +47 опасность
перегрева
1005.0 998.2
06 19.07 Ю 2 20 км 10/5 1000 м
[Sc As op]
+28.5 +25.3 83 +42 +43 опасность
перегрева
1005.3 998.4
09 19.07 ЮВ 1 20 км 10/8 1000 м
[Sc As op]
+28.2 +26.0 88 +42 +43 опасность
перегрева
1005.4 998.5
12 19.07 В 5 20 км 10/3 1000 м
[Sc As op]
+27.7 +24.5 83 +39 +39 очень
душно
1004.1 997.2 +29.3
15 19.07 В 3 20 км в посл. час дождь 10/10 1000 м
[Sc As op]
+28.3 +24.5 80 +40 +40 очень
душно
1002.5 995.7
18 19.07 В 3 13 км слаб. дождь 10/10 600 м
[Frnb Ns]
+24.4 +24.2 99 +34 +34 очень
душно
999.9 993.0 2
21 19.07 В 2 20 км в посл. час дождь 10/8 1000 м
[Sc As op]
+25.1 +24.7 98 +35 +35 очень
душно
998.1 991.2
00 20.07 В 4 20 км слаб. дождь 10/6 1000 м
[Sc As op]
+26.1 +25.9 99 +39 +39 очень
душно
997.3 990.4 +23.7 4
03 20.07 В 7 20 км слаб. дождь 10/8 1000 м
[Frnb As op]
+27.4 +26.5 95 +42 +43 опасность
перегрева
996.2 989.4
06 20.07 В 2 4200 м слаб. дождь 10/10 1000 м
[Frnb Ns]
+26.6 +26.4 99 +40 +40 очень
душно
995.5 988.6 0.9
09 20.07 В 1 14 км слаб. дождь 10/10 1000 м
[Frnb Ns]
+25.2 +25.0 99 +36 +36 очень
душно
994.9 988.0
12 20.07 ЮВ 3 2200 м слаб. дождь 10/9 600 м
[Frnb As op]
+24.1 +23.9 99 +33 +33 очень
душно
996.5 989.6 +29.3 8
15 20.07 ЮВ 1 2200 м дождь 10// 600 м
[Frnb As op]
+23.3 +23.1 99 +33 +33 очень
душно
997.0 990.1
18 20.07 Ю 1 2900 м дождь 10// 600 м
[Frnb As op]
+22.4 +22.2 99 +30 +30 очень
душно
998.9 991.9 37
21 20.07 ЮЗ 3 3000 м слаб. дождь 10// 600 м
[Frnb As op]
+23.7 +23.5 99 +32 +32 очень
душно
1000.6 993.7
00 21.07 ЮЗ 7 2200 м слаб. дождь 10/8 600 м
[Frnb As op]
+23.9 +23.7 99 +32 +33 очень
душно
1002.9 996.0 +21.5 52
03 21.07 ЮЗ 4 5000 м в посл. час дождь 10/9 1000 м
[Sc As op]
+24.6 +24.4 99 +34 +35 очень
душно
1004.5 997.6
06 21.07 ЮЗ 4 20 км 9/9 1000 м
[Sc]
+27.0 +26.4 97 +41 +47 опасность
перегрева
1004.9 998.0 7
09 21.07 З 1 14 км в посл. час дождь 10/9 1000 м
[Frnb As op]
+25.9 +25.7 99 +38 +38 очень
душно
1005.6 998.7
12 21.07 С 1 10 км 8/8 600 м
[Sc]
+25.0 +24.8 99 +35 +35 очень
душно
1006.7 999.7 +27.4 7
15 21.07 Ю 1 19 км 9// 600 м
[Sc]
+25.3 +25.1 99 +36 +36 очень
душно
1007.0 1000.0
18 21.07 штиль 0 15 км 6/6 600 м
[Sc]
+25.0 +24.8 99 +35 +35 очень
душно
1007.1 1000.1
21 21.07 В 2 9000 м дымка н/о +24.8 +24.6 99 +35 +35 очень
душно
1007.2 1000.3
00 22.07 штиль 0 14 км 9/9 1000 м
[Sc]
+26.8 +26.2 97 +41 +48 опасность
перегрева
1007.7 1000.8 +24.7 0.0
03 22.07 19 км н/о +30.2 +26.1 79 1006.9 1000.0
06 22.07 З 3 20 км 5/5 1000 м
[Sc]
+30.9 +27.6 83 +50 +56 опасность
перегрева
1005.8 999.0
09 22.07 З 2 20 км 5/0
[Ci fib]
+29.2 +27.7 92 +48 +50 опасность
перегрева
1005.3 998.5
12 22.07 штиль 0 12 км 9/3 300 м
[Sc Ci fib]
+26.5 +26.3 99 +40 +40 очень
душно
1006.7 999.8 +31.9
15 22.07 В 1 8000 м дымка 8/4 600 м
[Sc Ci fib]
+26.2 +26.0 99 +39 +39 очень
душно
1007.3 1000.4
18 22.07 13 км 5/5 600 м
[Sc]
+26.1 +25.9 99 1007.0 1000.1
21 22.07 4500 м дымка н/о +25.5 +25.3 99 +37 +37 очень
душно
1006.7 999.7
00 23.07 Ю 3 20 км 8/3 1000 м
[Sc Ac trans]
+28.9 +26.5 87 +44 +48 опасность
перегрева
1006.9 1000.0 +25.5
03 23.07 ЮЗ 2 20 км 8/5 1000 м
[Sc Ci fib]
+30.6 +25.8 76 +46 +55 опасность
перегрева
1005.9 999.1
06 23.07 ЮЗ 2 20 км 8/8 1000 м
[Sc]
+31.5 +26.0 73 +47 +49 опасность
перегрева
1004.0 997.2
09 23.07 Ю 3 20 км 8/5 1000 м
[Sc Ci fib]
+31.4 +25.4 71 +46 +47 опасность
перегрева
1002.5 995.7

 

Местоположение метеостанции Чонджу (Корея): широта 35.82 долгота 127.15 высота над уровнем моря 55 м.

В архиве по умолчанию представлена погода в Чонджу за последнюю неделю. Архивные данные за месяц целиком и за предыдущие месяцы, начиная с января 2011 года, Вы можете получить, выбрав интересующий диапазон дат из раскрывающегося списка и нажав кнопку "Ввод!".


*Определитесь, кто Вы:
робот инопланетянин человек

Внимание! Время в таблицах - всемирное. Для получения местного времени необходимо прибавить поправку, которая равна 9 ч.

Смотрите также архив погоды в соседних городах и на ближайших метеорологических станциях:

Погода в Чоныпе (Корея) (39 км)
Погода в Кунсане (Корея) (40 км)
Погода в Намвоне (Корея) (49 км)
Погода в Кочхане (Корея) (59 км)
Погода в Тэджоне (Корея) (64 км)
Погода в Чинхэгу (Корея) (70 км)
Погода в Кванджу (Корея) (76 км)
Погода в Порёне (Корея) (78 км)
Погода в Сунчхоне (Корея) (84 км)
Погода на Чупунджнеоне (Корея) (88 км)

Пояснения к столбцам:

Ветер - указаны скорость ветра в м/с - средняя за 10 мин, порывы в срок и между сроками (в фигурных скобках) и направление, откуда дует ветер: С - северный, СВ - северо-восточный, В - восточный, ЮВ - юго-восточный, Ю - южный, ЮЗ - юго-западный, З - западный, СЗ - северо-западный.
Видимость - горизонтальная дальность видимости в метрах или километрах. При видимости от 1 до 10 км при отсутствии осадков обычно наблюдается дымка, при ухудшении видимости до 1 км и менее - туман. В сухую погоду видимость может ухудшаться дымом, пылью или мглою.
Явления - указаны атмосферные явления, наблюдавшиеся в срок или в последний час перед сроком; фигурными скобками обозначены явления, наблюдавшиеся между сроками (за 1-3 часа до срока); квадратными скобками обозначены град или гололедные отложения с указанием их диаметра в мм.
Облачность - указаны через наклонную черту общая и нижняя облачность в баллах и высота нижней границы облаков в метрах; квадратными скобками обозначены формы облаков: Ci - перистые, Cs - перисто-слоистые, Cc - перисто-кучевые, Ac - высококучевые, As - высокослоистые, Sc - слоисто-кучевые, Ns - слоисто-дождевые, Cu - кучевые, Cb - кучево-дождевые. Подробнее классификацию облаков см. в Атласе облаков (PDF).
T - Температура воздуха - температура, измеренная на высоте 2 м над землей.
Td - Температура точки росы - температура, при понижении до которой содержащийся в воздухе водяной пар достигнет насыщения.
f - Относительная влажность воздуха - влажноcть воздуха, измеренная на высоте 2 м над землей.
Te - Эффективная температура - температура, которую ощущает одетый по сезону человек в тени. Характеристика душности погоды. При расчете учитывается влияние влажности воздуха и скорости ветра на теплоощущения человека.
Tes - Эффективная температура на солнце - температура, которую ощущает человек, с поправкой на солнечный нагрев. Характеристика знойности погоды. Зависит от высоты солнца над горизонтом, облачности и скорости ветра. Ночью, в пасмурную погоду, а также при ветре 12 м/с и более поправка равна нулю.
P - Атмосферное давление - приведенное к уровню моря атмосферное давление.
Po - Атмосферное давление - измеренное на уровне метеостанции атмосферное давление.
Tmin - Минимальная температура - минимум температуры воздуха на высоте 2 м над землей.
Tmax - Максимальная температура - максимум температуры воздуха на высоте 2 м над землей.
R - Количество осадков - Количество выпавших осадков за период времени, мм. При наведении курсора мыши на число - период времени, за который выпало указанное количество осадков.
R24 - Количество осадков - Количество выпавших осадков за 24 часа, мм.
S - Снежный покров - Высота снежного покрова, см. При наведении курсора мыши на число - состояние снежного покрова и степень покрытия местности в баллах.